Regional Weather Roundup
Issued by NWS Pendleton, OR

Home | Current Version | Previous Version | Text Only | Print | Product List | Glossary On
Versions: 1 2 3 4 5 6 7 8 9 10 11 12 13 14 15 16 17 18 19 20 21 22 23 24 25 26 27 28 29 30 31 32 33 34 35 36 37 38 39 40 41 42 43 44 45 46 47 48 49 50
000
ASUS46 KPDT 301510
RWRPDT
PENDLETON REGIONAL WEATHER ROUNDUP
NATIONAL WEATHER SERVICE PENDLETON OREGON
800 AM PDT THU JUL 30 2015

NOTE: FAIR INDICATES FEW OR NO CLOUDS BELOW 12,000 FEET WITH NO
SIGNIFICANT WEATHER AND/OR OBSTRUCTIONS TO VISIBILITY.

# INDICATES UNOFFICIAL STATION AND DATA

WAZ520-301610-
EAST SLOPES OF WASHINGTON CASCADES

CITY            SKY/WX      TMP DP  RH  WIND    PRES   REMARKS
#BULLFROG 2SW   N/A         62  38  41  W2      27.78S
#BUMPING DAM    N/A         49  N/A N/A N3      N/A
#CLE ELUM HS    N/A         53  39  59  CALM    30.12R
#CLE ELUM LAKE  N/A         62  35  36  CALM    30.03R
#CLIFFDEL 2NW   N/A         50  35  56  CALM    N/A
#EASTON DOT     N/A         58  40  51  CALM    N/A
#GLENWOOD       N/A         52  47  83  CALM    30.09R
#MANASTASH CYN  N/A         63  38  39  CALM    30.15S
#NELSON         N/A         51  44  77  CALM    30.11S
#NELSON 3SW     N/A         61  35  38  CALM    30.26R
#NILE           N/A         58  40  51  W5      29.39F
#PEOH POINT     N/A         72  30  21  CALM    N/A
#RONALD 2NW     N/A         58  39  49  CALM    30.07R
#SNOWDEN        N/A         61  32  33  CALM    N/A
#TEANAWAY 4NE   N/A         52  40  63  CALM    N/A
#TROUT LAKE 1NE N/A         60  45  58  CALM    30.06S
$$

WAZ521-301610-
SIMCOE HIGHLANDS

CITY            SKY/WX      TMP DP  RH  WIND    PRES   REMARKS
#BICKLETON HS   N/A         77  33  20  CALM    N/A
#SATUS PASS DOT N/A         65  33  30  CALM    N/A
#CENTERVILLE 4W N/A         69  42  37  CALM    29.89R
#CENTERVILLE 1SWN/A         54  33  45  CALM    30.08F
#GOLDENDALE     N/A         60  37  42  E1      N/A
#GOLDENDALE 1NE N/A         63  28  26  CALM    N/A
#GOLDENDALE 5WNWN/A         66  41  40  CALM    30.03S
#GOODNOE HILLS  N/A         79  37  22  W3      N/A
#LYLE 6NE       N/A         64  42  45  N3      30.00R
$$

WAZ026-301610-
KITTITAS VALLEY

CITY            SKY/WX      TMP DP  RH  WIND    PRES   REMARKS
ELLENSBURG AP   SUNNY       66  43  43  E3      30.17R
YTC-OPS AREA    N/A         77  31  19  N5      30.19R
#ELLENSBURG CWU N/A         64  45  50  CALM    30.04S
#ELLENSBURG 3NE N/A         63  46  54  CALM    30.16R
#ELLENSBURG 1E  N/A         57  44  62  CALM    N/A
#KITTITAS 3S    N/A         56  51  83  CALM    30.09R
#THORP 6N       N/A         62  36  38  NW5     30.08R
$$

WAZ027-301610-
YAKIMA VALLEY

CITY            SKY/WX      TMP DP  RH  WIND    PRES   REMARKS
SUNNYSIDE AP    SUNNY       63  52  67  CALM    30.11R
YAKIMA AIRPORT  SUNNY       72  45  38  W9      30.13S
#DONALD 2NE     N/A         85  25  11  CALM    28.96R
#GRANDVIEW      N/A         66  47  50  CALM    30.09R
#MABTON         N/A         65  54  68  CALM    30.10R
#MOXEE 2E       N/A         67  22  18  CALM    30.03F
#NACHES 2SW     N/A         68  47  47  W3      30.15S
#TERRACE HTS    N/A         60  46  60  CALM    30.03S
#TOPPENISH      N/A         67  48  50  CALM    29.99R
#WAPATO 4NE     N/A         85  25  11  CALM    28.96R
#WEST VALLEY    N/A         66  50  56  CALM    30.06R
#WHITE SWAN 5E  N/A         65  48  54  CALM    30.07R
#WILEY CITY 3W  N/A         76  39  26  CALM    30.11R
$$

WAZ028-301610-
LOWER COLUMBIA BASIN...WASHINGTON

CITY            SKY/WX      TMP DP  RH  WIND    PRES   REMARKS
PASCO           SUNNY       66  46  48  CALM    30.11R
RICHLAND AWOS   SUNNY       68  52  57  CALM    30.10R
#BASIN CITY 5SW N/A         62  50  65  CALM    30.09R
#BENTON CITY    N/A         71  53  53  CALM    29.98R
#CONNELL 5N     N/A         71  36  28  NE2     30.06R
#CONNELL 5NW    N/A         70  39  32  NE2     30.03R
#ELTOPIA 6NW    N/A         67  46  47  N3      29.08R
#KAHLOTUS       N/A         63  33  32  S7      30.06R
#KENNEWICK      N/A         62  38  41  W2      27.78S
#KENNEWICK 3S   N/A         67  47  49  CALM    30.06R
#PATERSON       N/A         66  47  50  CALM    30.06R
#PROSSER DOT    N/A         65  51  60  CALM    N/A
#PROSSER        N/A         67  49  52  CALM    30.06R
#SAGEMOOR 2W    N/A         66  50  56  CALM    29.91R
#TOUCHET 2S     N/A         58  48  69  CALM    30.06R
#WEST PASCO     N/A         67  50  54  CALM    30.07R
$$

WAZ029-301610-
FOOTHILLS OF THE BLUES...WASHINGTON

CITY            SKY/WX      TMP DP  RH  WIND    PRES   REMARKS
WALLA WALLA AP  SUNNY       78  37  23  S5      30.11R
#DAYTON SCHOOL  N/A         73  37  27  VRB3    30.11S
#LOWDEN 2SE     N/A         61  50  67  CALM    30.06S
#PLEASANT VIEW 1N/A         69  35  28  N2      30.08R
#PRESCOTT       N/A         72  43  35  CALM    30.05R
#SUDBURY        N/A         69  N/A N/A CALM    N/A
#WHITMAN COLLEGEN/A         72  47  41  CALM    30.09R
#WAITSBURG 8N   N/A         86  26  11  SE3     29.97R
#WALLA WALLA U  N/A         69  51  53  CALM    30.05R
#WHITMAN MISSIONN/A         61  51  70  CALM    30.07S
$$

WAZ030-301610-
BLUE MOUNTAINS...WASHINGTON

CITY            SKY/WX      TMP DP  RH  WIND    PRES   REMARKS
$$

ORZ009-041-WAZ024-301610-
COLUMBIA RIVER GORGE

CITY            SKY/WX      TMP DP  RH  WIND    PRES   REMARKS
HOOD RIVER AP   SUNNY       64  45  50  S5      30.10S
THE DALLES AP   SUNNY       66  39  37  CALM    30.09R
#ARLINGTON AIRPON/A         71  39  31  W3      N/A
#MARYHILL       N/A         69  40  35  CALM    N/A
#MOSIER 1S      N/A         66  31  27  CALM    30.11S
#MURDOCK        N/A         68  47  47  CALM    30.09R

$$

ORZ510-301610-
NORTH CENTRAL OREGON

CITY            SKY/WX      TMP DP  RH  WIND    PRES   REMARKS
#CHENOWITH 1W   N/A         69  39  33  NW6     N/A
#DUFUR 9E       N/A         77  35  22  NE2     30.05S
#GRASS VALLEY 1SN/A         73  40  30  S1      30.05S
#MAUPIN SCHOOL  N/A         63  41  44  CALM    30.14R
#MORO SCHOOL    N/A         69  44  40  CALM    30.14R
#SHANIKO 4NW    N/A         74  32  21  S5      30.22S
#TYGH VALLEY 2NEN/A         61  42  50  CALM    30.06S
#WAPANITIA AIRPON/A         69  38  32  CALM    30.06R
#WASCO 5NE      N/A         73  40  30  CALM    30.05R
$$

ORZ511-301610-
CENTRAL OREGON

CITY            SKY/WX      TMP DP  RH  WIND    PRES   REMARKS
BEND AIRPORT    SUNNY       64  36  35  S6      30.23S
MADRAS AIRPORT  SUNNY       64  36  35  S5      30.20R
PRINEVILLE AP   SUNNY       68  32  26  CALM    30.22R
REDMOND AIRPORT SUNNY       66  32  28  CALM    30.21S
#BEND 1SW       N/A         60  39  46  W1      N/A
#BEND-AWBREY    N/A         63  37  38  SW1     30.03S
#BEND-KIM LN    N/A         60  40  47  SW6     30.21R
#CROOKED RVR RANN/A         63  37  38  SW3     30.04R
#CULVER         N/A         62  42  48  CALM    30.15R
#LAKE BILLY CHINN/A         64  -1   7  CALM    30.20S
#POWELL BUTTE   N/A         80  45  29  CALM    29.83S
#PRINEVILLE 3N  N/A         63  42  46  NE1     30.05S
#WARM SPRINGS   N/A         65  40  40  CALM    30.13R

$$


ORZ509-301610-
EAST SLOPES OF OREGON CASCADES

CITY            SKY/WX      TMP DP  RH  WIND    PRES   REMARKS
#CAMP SHERMAN   N/A         42  34  73  CALM    30.14R
#LA PINE 4NW    N/A         53  37  54  CALM    30.13S
#SISTERS AIRPOR N/A         60  42  51  CALM    30.17S
#SISTERS 3N     N/A         53  37  54  CALM    30.34S
#SUNRIVER       N/A         53  40  61  S1      29.97S
#TUMALO 3W      N/A         73  33  23  CALM    29.91R
#WANOGA BUTTE D N/A         70  22  16  E1      N/A

$$

ORZ044-301610-
LOWER COLUMBIA BASIN...OREGON

CITY            SKY/WX      TMP DP  RH  WIND    PRES   REMARKS
HERMISTON       SUNNY       70  40  34  CALM    30.10R
#BOARDMAN SCHOOLN/A         68  49  51  CALM    30.10R
#BOARDMAN 8SW   N/A         68  45  44  NW2     30.07R
#ECHO 8SW       N/A         70  44  39  SE1     30.11R
#IONE SCHOOL    N/A         66  39  37  CALM    30.07S
#IRRIGON 4NW    N/A         67  52  59  CALM    N/A
#UMATILLA       N/A         64  44  48  CALM    30.01R
$$

ORZ507-301610-
NORTHERN FOOTHILLS OF THE BLUES

CITY            SKY/WX      TMP DP  RH  WIND    PRES   REMARKS
PENDLETON AIRPT SUNNY       72  37  28  SE5     30.12R
#ADAMS 3WNW     N/A         77  42  29  E1      30.06R
#ATHENA         N/A         73  49  43  CALM    30.08S
#CAYUSE         N/A         74  42  32  CALM    30.04R
#HELIX SCHOOL   N/A         66  41  40  CALM    30.05S
#HELIX 3N       N/A         81  37  21  CALM    30.10R
#HOLDMAN 5SE    N/A         77  40  26  E2      30.11S
#HOLDMAN 6E     N/A         75  41  29  CALM    29.87R
#M-F GROVE ELEM N/A         74  44  34  CALM    30.09R
#M-FREEWATER 5SEN/A         74  45  35  CALM    30.10S
#PENDLETON DNTN N/A         59  38  45  CALM    30.08S
#PDT AQUATIC CTRN/A         61  38  42  CALM    30.09R
#PDT SUNRIDGE   N/A         65  39  38  CALM    30.13R
#PENDLETON 7NW  N/A         70  45  41  E1      N/A
#PILOT ROCK     N/A         76  43  31  CALM    30.14S
#TUTUILLA       N/A         69  44  40  CALM    30.09R
#UMAPINE 2E     N/A         67  51  56  CALM    30.07R
#WESTON SCHOOL  N/A         76  31  19  CALM    30.01S

$$

ORZ508-301610-
SOUTHERN FOOTHILLS OF THE BLUES

CITY            SKY/WX      TMP DP  RH  WIND    PRES   REMARKS
#CONDON SCHOOL  N/A         70  38  31  CALM    30.13S
#CONDON 5W      N/A         75  31  20  E2      30.17R
#FOSSIL SCHOOL  N/A         66  39  37  CALM    30.12S
#HEPPNER EOC    N/A         73  38  28  E5      29.98R
#HEPPNER 4NE    N/A         81  37  21  CALM    30.03R
#LEXINGTON 2SE  N/A         72  44  37  SE6     30.09S
#OLEX 4N        N/A         72  36  27  S2      30.09R
#RUGGS 5NE      N/A         78  42  28  CALM    30.33S
#RUGGS 2SW      N/A         77  38  24  CALM    30.05R

$$

ORZ502-503-301610-
BLUE MOUNTAINS

CITY            SKY/WX      TMP DP  RH  WIND    PRES   REMARKS
MEACHAM         SUNNY       61  43  51  CALM    30.25S
#HEPPNER 15SE   N/A         79  39  24  CALM    30.14S
#LONG CREEK HS  N/A         62  40  44  CALM    30.21S
#PIKES PEAK     N/A         77  34  21  CALM    27.99S
#TOLLGATE       N/A         68  38  33  CALM    30.15R
#TROY SCHOOL    N/A         65  43  45  CALM    29.99F
#UKIAH          N/A         48  40  74  CALM    30.20R
#WESTON 4E      N/A         75  37  25  SE7     29.98R
$$

ORZ505-301610-
JOHN DAY BASIN

CITY            SKY/WX      TMP DP  RH  WIND    PRES   REMARKS
JOHN DAY        SUNNY       66  35  32  E7      30.27R
#JOHN DAY KJDY  N/A         63  48  58  CALM    30.30S
#DAYVILLE SCHOOLN/A         61  36  39  CALM    30.19R
#MITCHELL       N/A         69  44  40  CALM    30.34S
#MONUMENT HS    N/A         61  36  39  CALM    30.20S
#MT. VERNON 5SE N/A         70  37  30  CALM    30.23R
#WINLOCK        N/A         72  39  30  CALM    30.29R
$$

ORZ506-301610-
OCHOCO AND JOHN DAY HIGHLANDS

CITY            SKY/WX      TMP DP  RH  WIND    PRES   REMARKS
#PAULINA SCHOOL N/A         54  37  52  CALM    30.21R
#PINE MTN OBS   N/A         68  25  20  SE9     N/A
#PRAIRIE CITY   N/A         61  46  58  CALM    30.20F
#SENECA         N/A         47  N/A N/A CALM    N/A
#SENECA 9NW     N/A         41  35  79  CALM    30.15S
$$

ORZ049-301610-
GRANDE RONDE VALLEY

CITY            SKY/WX      TMP DP  RH  WIND    PRES   REMARKS
LA GRANDE       SUNNY       63  36  36  CALM    30.25R
#COVE           N/A         63  48  58  CALM    30.25R
#COVE SCHOOL    N/A         66  45  47  CALM    30.25R
#COVE 6NW       N/A         54  46  74  CALM    30.19R
#ELGIN 3N       N/A         60  40  47  CALM    30.21R
#ELGIN 1E       N/A         52  39  61  CALM    N/A
#ISLAND CITY 4N N/A         63  53  70  CALM    30.02S
#LA GRANDE ELEM N/A         66  44  45  CALM    30.24S
#UNION 1S       N/A         60  46  60  CALM    30.04S
$$

ORZ050-301610-
WALLOWA COUNTY

CITY            SKY/WX      TMP DP  RH  WIND    PRES   REMARKS
#IMNAHA SCHOOL  N/A         59  41  51  S1      30.21S
#IMNAHA 10S     N/A         63  40  43  S2      30.22F
#JOSEPH 3N      N/A         61  38  42  CALM    30.27R
#JOSEPH 3W      N/A         70  43  38  CALM    30.12R
#LOSTINE        N/A         61  42  50  CALM    29.94R
#MT HOWARD 8000 N/A         62  31  31  CALM    30.55R
#PROMISE 1S     N/A         64  40  41  CALM    30.17R
#WALLOWA SCHOOL N/A         56  42  59  CALM    30.21S



$$



USA.gov is the U.S. government's official web portal to all federal, state and local government web resources and services.